Location: Caltech
(34.1382°N, 118.1253°W)
Time: 18:53:37
(UTC-07:00)

ITAMSAT 1 - Visible Passes

Search period start: 29 July 2016 00:00
Search period end: 08 August 2016 00:00
Orbit: 784 x 797 km, 98.8° (Epoch: 29 July)

Date Brightness Start Highest point End Pass type
(mag) Time Alt. Az. Time Alt. Az. Time Alt. Az.
29 Jul 9.6 02:48:51 10° NE 02:52:31 19° E 02:53:34 18° ESE visible
29 Jul 8.2 04:27:14 10° N 04:32:05 41° WNW 04:34:18 27° WSW visible
30 Jul 7.5 03:57:40 10° N 04:02:53 82° WNW 04:04:33 44° SSW visible
31 Jul 8.3 03:28:31 10° NNE 03:33:33 50° E 03:34:48 41° SE visible
31 Jul 9.3 05:09:18 10° NNW 05:12:34 17° WNW 05:15:32 11° WSW visible
01 Aug 9.3 02:59:53 10° NE 03:04:06 25° E 03:05:03 24° ESE visible
01 Aug 8.5 04:38:58 10° N 04:43:31 32° WNW 04:45:47 23° WSW visible
02 Aug 10.1 02:32:32 10° ENE 02:34:32 12° E 02:35:18 12° ESE visible
02 Aug 7.7 04:09:15 10° N 04:14:22 63° WNW 04:16:02 41° SW visible
03 Aug 7.8 03:39:55 10° NNE 03:45:04 65° ESE 03:46:17 49° SSE visible
03 Aug 9.6 05:21:36 10° NW 05:23:55 13° WNW 05:26:15 10° W visible
04 Aug 8.9 03:11:03 10° NE 03:15:40 32° E 03:16:32 30° ESE visible
04 Aug 8.9 04:50:47 10° NNW 04:54:57 25° WNW 04:57:15 18° WSW visible
05 Aug 9.8 02:42:59 10° NE 02:46:09 16° E 02:46:47 16° ESE visible
05 Aug 8.0 04:20:51 10° N 04:25:50 48° WNW 04:27:30 35° WSW visible
06 Aug 7.6 03:51:23 10° NNE 03:56:35 85° E 03:57:45 55° S visible
07 Aug 8.5 03:22:20 10° NNE 03:27:14 42° E 03:28:00 39° ESE visible
07 Aug 9.1 05:02:42 10° NNW 05:06:20 20° WNW 05:08:44 15° W visible
